VTCL

Details ICAO VTCL (LPT)
Name Lampang
Region Thailand
Timezone Asia/Bangkok (UTC+7.0)
Plans Departing 6
Arriving 11
Stats Elevation 811 ft / 247 m (AMSL)
Location 18.270916° 99.504250°
Runways 1
Magnetic Variation 0.741° W
Sunrise 2018-05-22 22:47:59 UTC / 2018-05-23 05:47:59 Local
Sunset 2018-05-23 11:52:18 UTC / 2018-05-23 18:52:18 Local
Advertisement - Login to hide

Runways

ID Width Length Bearing (true) Bearing (mag) Surface Threshold Offset Overrun Length
18 95 ft / 29 m 6,496 ft / 1,980 m 175.46° 176.20° Asphalt 660 ft / 201 m 0 ft / 0 m
36 95 ft / 29 m 6,496 ft / 1,980 m 355.46° 356.20° Asphalt 330 ft / 101 m 0 ft / 0 m

Approach Navaids

Runway Type Ident Frequency Range Bearing (true) Bearing (mag) Slope Elevation
36 Localiser ILPN 109.70 MHz 18 nm / 33 km 355.21° 355.95° - 789 ft / 240 m (AMSL)
36 DME ILPN 109.70 MHz 18 nm / 33 km - - - 789 ft / 240 m (AMSL)

Map

Weather


0- 5 10 15 20 25 30 35+ Temperature / ° C

Clouds and Precipitation
Forecast for 2018-05-23 12:00 UTC. Updated 4 hours ago

Ground ~20,000 ft ~40,000 ft Winds

METAR

Not found

TAF

TAF VTCL 231100Z 2312/2412 16005KT 9999 FEW025 TEMPO 2313/2315 VRB15G30KT 4000 TSRA FEW020CB BKN080 TEMPO 2408/2412 VRB15G30KT 4000 TSRA FEW020CB BKN080

Frequencies

Tower 122.30 MHz TWR
Approach 119.30 MHz APP
Warning: Do not use this data for real-world aviation or navigation. No guarantee of current accuracy is given.